Flight Information

DEPARTURE
RIVERSIDE, CA
Elevation:
818
Runways:
H1 - 60x60 - ASPH-G
16/34 - 2850x50 - ASPH-F
9/27 - 5401x100 - ASPH-G
Active PE Departure:
27
Current PE ATIS:
G
Altimeter:
30.12
Remarks:
ATIS:
128.8 951-688-7257
Ground:
121.7
Tower:
121
DESTINATION
,
Elevation:
TPA:
1000 (est.)


6748.4 NM74° True-14° Var60° HDG

Flight Plan:
(click to file on line)

1. Type
2. Aircraft Identification
3. Aircraft Type / Special Equipment
4. True Airspeed
kts
5. Departure Airport
(ICAO code)
6. Arriving Airport
(ICAO code)
7. Cruising Altitude
ft
8. Alternate Airport
(ICAO code)
9. Route of Flight
10. Remarks


00:00:00 Departure ATIS: Destination ATIS:

Clearance Limit:
Route:
Altitude: Expect in minutes
Frequency:
Transponder: (7500 Hijack / 7600 Lost Comms / 7700 Emergency)


KRAL 100553Z AUTO 11003KT 10SM CLR 08/04 A3012 RMK AO2 SLP192 T00780039 10161 20078 51004
Time: 2022-12-10T05:53:00Z
1670651753
Winds: 110 @ 3 kts
Visibility: 10.0 sm
Clouds (AGL): CLR
Temperature: 7.8 C
Dew Point: 3.9 C
Pressure: 30.121063 in Hgbr


Notes:

Data extracted from FAA Digital Chart Supplement. Effective: 0901Z Thursday, 27 JAN 2022 to 0900z Thursday, 24 MAR 2022
Current ATIS data is provided courtisy of PilotEdge.